| time (UTC) | temp C | wind direction | speed KPH | gust KPH | rain 1hr cm | rain 24hr cm | rain mn cm | humidity % | barometer mb |
| 20260505092925 | 6 | 55 | 0.0 | 0.0 | 0.00 | 0.00 | 0.00 | 87 | 1005.8 |
| 20260505092423 | 7 | 20 | 1.6 | 6.4 | 0.00 | 0.00 | 0.00 | 86 | 1005.8 |
| 20260505091920 | 7 | 326 | 4.8 | 6.4 | 0.00 | 0.00 | 0.00 | 86 | 1005.6 |
| 20260505091418 | 7 | 328 | 6.4 | 14.5 | 0.00 | 0.00 | 0.00 | 85 | 1005.7 |
| 20260505090916 | 7 | 306 | 11.3 | 12.9 | 0.00 | 0.00 | 0.00 | 83 | 1005.4 |
| 20260505090414 | 7 | 303 | 9.7 | 12.9 | 0.00 | 0.00 | 0.00 | 82 | 1005.5 |
| 20260505085911 | 8 | 314 | 9.7 | 12.9 | 0.00 | 0.00 | 0.00 | 80 | 1005.3 |
| 20260505085409 | 8 | 309 | 6.4 | 9.7 | 0.00 | 0.00 | 0.00 | 79 | 1005.1 |
| 20260505084907 | 8 | 287 | 6.4 | 12.9 | 0.00 | 0.00 | 0.00 | 77 | 1004.8 |
| 20260505084405 | 8 | 302 | 6.4 | 8.0 | 0.00 | 0.00 | 0.00 | 76 | 1004.7 |
| 20260505083903 | 9 | 302 | 11.3 | 12.9 | 0.00 | 0.00 | 0.00 | 74 | 1004.5 |
| 20260505083400 | 9 | 304 | 9.7 | 12.9 | 0.00 | 0.00 | 0.00 | 73 | 1004.7 |
| 20260505082855 | 9 | 299 | 4.8 | 8.0 | 0.00 | 0.00 | 0.00 | 72 | 1004.7 |
| 20260505082352 | 10 | 264 | 8.0 | 9.7 | 0.00 | 0.00 | 0.00 | 71 | 1004.3 |
| 20260505081849 | 10 | 320 | 6.4 | 14.5 | 0.00 | 0.00 | 0.00 | 69 | 1004.3 |
| 20260505081345 | 10 | 351 | 11.3 | 16.1 | 0.00 | 0.00 | 0.00 | 68 | 1004.3 |
| 20260505080842 | 10 | 299 | 11.3 | 14.5 | 0.00 | 0.00 | 0.00 | 67 | 1004.3 |
| 20260505080338 | 10 | 300 | 6.4 | 12.9 | 0.00 | 0.00 | 0.00 | 66 | 1004.0 |
| 20260505075834 | 10 | 318 | 3.2 | 6.4 | 0.00 | 0.00 | 0.00 | 65 | 1004.1 |
| 20260505075330 | 11 | 309 | 9.7 | 12.9 | 0.00 | 0.00 | 0.00 | 64 | 1004.3 |
| 20260505074828 | 11 | 298 | 4.8 | 8.0 | 0.00 | 0.00 | 0.00 | 62 | 1004.3 |
| 20260505074325 | 11 | 291 | 9.7 | 12.9 | 0.00 | 0.00 | 0.00 | 61 | 1003.9 |
| 20260505073822 | 11 | 304 | 6.4 | 9.7 | 0.00 | 0.00 | 0.00 | 60 | 1004.1 |
| 20260505073320 | 11 | 321 | 4.8 | 14.5 | 0.00 | 0.00 | 0.00 | 59 | 1004.0 |
| 20260505072817 | 11 | 303 | 8.0 | 9.7 | 0.00 | 0.00 | 0.00 | 59 | 1004.0 |
| 20260505072313 | 11 | 304 | 9.7 | 12.9 | 0.00 | 0.00 | 0.00 | 59 | 1003.9 |
| 20260505071809 | 12 | 0 | 3.2 | 16.1 | 0.00 | 0.00 | 0.00 | 59 | 1003.8 |
| 20260505071305 | 12 | 333 | 4.8 | 14.5 | 0.00 | 0.00 | 0.00 | 58 | 1003.6 |
| 20260505070803 | 12 | 303 | 9.7 | 12.9 | 0.00 | 0.00 | 0.00 | 58 | 1003.7 |
| 20260505070254 | 12 | 7 | 11.3 | 17.7 | 0.00 | 0.00 | 0.00 | 59 | 1003.8 |
| 20260505065749 | 12 | 322 | 11.3 | 17.7 | 0.00 | 0.00 | 0.00 | 57 | 1003.6 |
| 20260505065246 | 12 | 328 | 14.5 | 17.7 | 0.00 | 0.00 | 0.00 | 57 | 1003.6 |
| 20260505064743 | 12 | 351 | 17.7 | 29.0 | 0.00 | 0.00 | 0.00 | 58 | 1003.8 |
| 20260505064241 | 12 | 339 | 9.7 | 14.5 | 0.00 | 0.00 | 0.00 | 59 | 1003.9 |
| 20260505063738 | 12 | 324 | 8.0 | 16.1 | 0.00 | 0.00 | 0.00 | 60 | 1004.1 |
| 20260505063234 | 12 | 351 | 3.2 | 9.7 | 0.00 | 0.00 | 0.00 | 59 | 1003.3 |
| 20260505062731 | 12 | 316 | 8.0 | 12.9 | 0.00 | 0.00 | 0.00 | 62 | 1003.6 |
| 20260505062229 | 12 | 290 | 11.3 | 16.1 | 0.00 | 0.00 | 0.00 | 63 | 1003.5 |
| 20260505061725 | 12 | 293 | 4.8 | 8.0 | 0.00 | 0.00 | 0.00 | 68 | 1003.5 |
| 20260505061224 | 11 | 299 | 8.0 | 14.5 | 0.00 | 0.00 | 0.00 | 76 | 1003.6 |
| 20260505060721 | 11 | 262 | 4.8 | 6.4 | 0.00 | 0.00 | 0.00 | 82 | 1003.4 |
| 20260505060217 | 10 | 270 | 6.4 | 6.4 | 0.00 | 0.00 | 0.00 | 87 | 1003.5 |
| 20260505055713 | 10 | 310 | 4.8 | 4.8 | 0.00 | 0.00 | 0.00 | 89 | 1003.2 |
| 20260505055209 | 10 | 352 | 1.6 | 1.6 | 0.00 | 0.00 | 0.00 | 90 | 1003.2 |
| 20260505054707 | 11 | 255 | 4.8 | 8.0 | 0.00 | 0.00 | 0.00 | 90 | 1003.3 |
| 20260505054205 | 11 | 210 | 6.4 | 8.0 | 0.00 | 0.00 | 0.00 | 89 | 1003.2 |
| 20260505053703 | 11 | 207 | 4.8 | 6.4 | 0.00 | 0.00 | 0.00 | 88 | 1003.2 |
| 20260505053158 | 11 | 245 | 6.4 | 6.4 | 0.00 | 0.00 | 0.00 | 87 | 1003.2 |
| 20260505052655 | 11 | 288 | 3.2 | 4.8 | 0.00 | 0.00 | 0.00 | 86 | 1003.2 |
| 20260505052147 | 11 | 332 | 1.6 | 4.8 | 0.00 | 0.00 | 0.00 | 86 | 1003.0 |
| 20260505051643 | 11 | 294 | 4.8 | 8.0 | 0.00 | 0.00 | 0.00 | 88 | 1002.8 |
| 20260505051142 | 11 | 295 | 6.4 | 8.0 | 0.00 | 0.00 | 0.00 | 88 | 1003.0 |
| 20260505050639 | 11 | 0 | 3.2 | 4.8 | 0.00 | 0.00 | 0.00 | 88 | 1002.8 |
| 20260505050138 | 11 | 291 | 4.8 | 6.4 | 0.00 | 0.00 | 0.00 | 88 | 1002.8 |
| 20260505041607 | 11 | 146 | 1.6 | 6.4 | 0.00 | 0.00 | 0.00 | 88 | 1002.4 |
| 20260505041104 | 11 | 152 | 6.4 | 6.4 | 0.00 | 0.00 | 0.00 | 87 | 1002.4 |
| 20260505040601 | 11 | 91 | 1.6 | 1.6 | 0.00 | 0.00 | 0.00 | 86 | 1002.3 |
| 20260505040058 | 11 | 89 | 1.6 | 4.8 | 0.00 | 0.00 | 0.00 | 86 | 1002.0 |
| 20260505035554 | 11 | 86 | 0.0 | 0.0 | 0.00 | 0.00 | 0.00 | 86 | 1002.4 |
| 20260505035051 | 12 | 180 | 1.6 | 4.8 | 0.00 | 0.00 | 0.00 | 86 | 1002.1 |
| 20260505034548 | 12 | 216 | 4.8 | 6.4 | 0.00 | 0.00 | 0.00 | 85 | 1002.1 |
| 20260505034044 | 12 | 217 | 8.0 | 9.7 | 0.00 | 0.00 | 0.00 | 85 | 1002.5 |
| 20260505033541 | 12 | 244 | 8.0 | 14.5 | 0.00 | 0.00 | 0.00 | 84 | 1002.4 |
| 20260505033040 | 12 | 269 | 9.7 | 14.5 | 0.00 | 0.00 | 0.00 | 84 | 1002.0 |
| 20260505032537 | 12 | 278 | 12.9 | 20.9 | 0.00 | 0.00 | 0.00 | 83 | 1002.3 |
| 20260505032033 | 12 | 281 | 22.5 | 25.7 | 0.00 | 0.00 | 0.00 | 82 | 1002.4 |
| 20260505031531 | 12 | 263 | 16.1 | 20.9 | 0.00 | 0.00 | 0.00 | 83 | 1002.4 |
| 20260505031027 | 13 | 266 | 16.1 | 17.7 | 0.00 | 0.00 | 0.00 | 81 | 1002.0 |
| 20260505030524 | 13 | 280 | 20.9 | 25.7 | 0.00 | 0.00 | 0.00 | 79 | 1001.7 |
| 20260505030020 | 13 | 299 | 24.1 | 25.7 | 0.00 | 0.00 | 0.00 | 79 | 1001.9 |
| 20260505025516 | 13 | 264 | 12.9 | 16.1 | 0.00 | 0.00 | 0.00 | 80 | 1001.2 |
| 20260505025015 | 14 | 254 | 14.5 | 20.9 | 0.00 | 0.00 | 0.00 | 79 | 1001.1 |
| 20260505024511 | 15 | 253 | 17.7 | 20.9 | 0.00 | 0.00 | 0.00 | 75 | 1001.0 |
| 20260505024009 | 16 | 273 | 17.7 | 29.0 | 0.00 | 0.00 | 0.00 | 73 | 1001.4 |
| 20260505023506 | 17 | 232 | 24.1 | 32.2 | 0.00 | 0.00 | 0.00 | 70 | 1000.6 |
| 20260505023003 | 17 | 246 | 19.3 | 29.0 | 0.00 | 0.00 | 0.00 | 68 | 1001.1 |
| 20260505022501 | 17 | 239 | 24.1 | 33.8 | 0.00 | 0.00 | 0.00 | 68 | 1000.8 |
| 20260505021958 | 17 | 217 | 14.5 | 37.0 | 0.00 | 0.00 | 0.00 | 67 | 1000.3 |
| 20260505021454 | 17 | 218 | 25.7 | 46.7 | 0.00 | 0.00 | 0.00 | 64 | 999.9 |
| 20260505020950 | 18 | 214 | 29.0 | 32.2 | 0.00 | 0.00 | 0.00 | 61 | 1000.2 |
| 20260505020445 | 17 | 220 | 35.4 | 45.1 | 0.00 | 0.00 | 0.00 | 59 | 1000.1 |
| 20260505015942 | 17 | 238 | 20.9 | 30.6 | 0.00 | 0.00 | 0.00 | 62 | 1000.1 |
| 20260505015440 | 17 | 213 | 20.9 | 30.6 | 0.00 | 0.00 | 0.00 | 63 | 1000.1 |
| 20260505014937 | 17 | 233 | 16.1 | 25.7 | 0.00 | 0.00 | 0.00 | 64 | 1000.0 |
| 20260505014433 | 18 | 224 | 25.7 | 32.2 | 0.00 | 0.00 | 0.00 | 64 | 1000.1 |
| 20260505013931 | 18 | 214 | 20.9 | 32.2 | 0.00 | 0.00 | 0.00 | 64 | 1000.0 |
| 20260505013428 | 18 | 196 | 19.3 | 37.0 | 0.00 | 0.00 | 0.00 | 66 | 999.9 |
| 20260505012925 | 18 | 202 | 24.1 | 38.6 | 0.00 | 0.00 | 0.00 | 66 | 1000.0 |
| 20260505012423 | 18 | 213 | 27.4 | 37.0 | 0.00 | 0.00 | 0.00 | 67 | 999.7 |
| 20260505011919 | 18 | 199 | 29.0 | 38.6 | 0.00 | 0.00 | 0.00 | 66 | 999.7 |
| 20260505011416 | 18 | 218 | 32.2 | 41.8 | 0.00 | 0.00 | 0.00 | 66 | 999.5 |
| 20260505010913 | 19 | 217 | 25.7 | 46.7 | 0.00 | 0.00 | 0.00 | 66 | 999.6 |
| 20260505010408 | 20 | 231 | 19.3 | 38.6 | 0.00 | 0.00 | 0.00 | 65 | 999.3 |
| 20260505005904 | 20 | 201 | 17.7 | 32.2 | 0.00 | 0.00 | 0.00 | 64 | 999.4 |
| 20260505005401 | 20 | 223 | 32.2 | 37.0 | 0.00 | 0.00 | 0.00 | 63 | 999.6 |
| 20260505004859 | 20 | 185 | 22.5 | 37.0 | 0.00 | 0.00 | 0.00 | 62 | 999.3 |
| 20260505004355 | 20 | 246 | 19.3 | 49.9 | 0.00 | 0.00 | 0.00 | 61 | 999.5 |
| 20260505003852 | 20 | 223 | 20.9 | 30.6 | 0.00 | 0.00 | 0.00 | 61 | 999.5 |
| 20260505003350 | 21 | 222 | 25.7 | 40.2 | 0.00 | 0.00 | 0.00 | 60 | 999.5 |
| 20260505002845 | 21 | 201 | 27.4 | 33.8 | 0.00 | 0.00 | 0.00 | 57 | 999.4 |
| 20260505002342 | 21 | 234 | 20.9 | 32.2 | 0.00 | 0.00 | 0.00 | 52 | 999.2 |
| 20260505001841 | 21 | 194 | 14.5 | 32.2 | 0.00 | 0.00 | 0.00 | 48 | 999.1 |
| 20260505001337 | 22 | 191 | 11.3 | 25.7 | 0.00 | 0.00 | 0.00 | 46 | 999.1 |
| 20260505000835 | 22 | 193 | 24.1 | 38.6 | 0.00 | 0.00 | 0.00 | 42 | 999.0 |
| 20260505000332 | 22 | 195 | 16.1 | 41.8 | 0.00 | 0.00 | 0.00 | 43 | 998.7 |
| 20260504235829 | 22 | 219 | 12.9 | 17.7 | 0.00 | 0.00 | 0.00 | 44 | 998.8 |
| 20260504235326 | 22 | 206 | 11.3 | 17.7 | 0.00 | 0.00 | 0.00 | 44 | 998.8 |
| 20260504234823 | 22 | 200 | 11.3 | 25.7 | 0.00 | 0.00 | 0.00 | 43 | 998.8 |
| 20260504234320 | 22 | 228 | 14.5 | 20.9 | 0.00 | 0.00 | 0.00 | 43 | 998.8 |
| 20260504233817 | 22 | 210 | 14.5 | 22.5 | 0.00 | 0.00 | 0.00 | 42 | 998.8 |
| 20260504233312 | 23 | 220 | 17.7 | 22.5 | 0.00 | 0.00 | 0.00 | 42 | 998.9 |
| 20260504232809 | 23 | 213 | 20.9 | 25.7 | 0.00 | 0.00 | 0.00 | 41 | 999.0 |
| 20260504232307 | 23 | 220 | 16.1 | 20.9 | 0.00 | 0.00 | 0.00 | 41 | 999.4 |
| 20260504231803 | 23 | 223 | 17.7 | 22.5 | 0.00 | 0.00 | 0.00 | 42 | 999.5 |
| 20260504231300 | 23 | 220 | 14.5 | 17.7 | 0.00 | 0.00 | 0.00 | 43 | 999.2 |
| 20260504230756 | 23 | 236 | 16.1 | 24.1 | 0.00 | 0.00 | 0.00 | 42 | 999.7 |
| 20260504230254 | 23 | 234 | 12.9 | 24.1 | 0.00 | 0.00 | 0.00 | 42 | 999.7 |
| 20260504225753 | 23 | 192 | 19.3 | 24.1 | 0.00 | 0.00 | 0.00 | 43 | 999.7 |
| 20260504225248 | 23 | 217 | 16.1 | 17.7 | 0.00 | 0.00 | 0.00 | 43 | 1000.0 |
| 20260504224745 | 23 | 211 | 17.7 | 25.7 | 0.00 | 0.00 | 0.00 | 42 | 1000.0 |
| 20260504224243 | 22 | 229 | 24.1 | 25.7 | 0.00 | 0.00 | 0.00 | 41 | 1000.4 |
| 20260504223739 | 22 | 182 | 12.9 | 24.1 | 0.00 | 0.00 | 0.00 | 44 | 1000.4 |
| 20260504223234 | 23 | 232 | 20.9 | 22.5 | 0.00 | 0.00 | 0.00 | 42 | 1000.4 |
| 20260504222732 | 23 | 217 | 24.1 | 29.0 | 0.00 | 0.00 | 0.00 | 43 | 1000.6 |
| 20260504222229 | 23 | 213 | 19.3 | 25.7 | 0.00 | 0.00 | 0.00 | 43 | 1000.4 |
| 20260504221726 | 23 | 227 | 22.5 | 30.6 | 0.00 | 0.00 | 0.00 | 42 | 1000.6 |
| 20260504221223 | 23 | 234 | 14.5 | 22.5 | 0.00 | 0.00 | 0.00 | 45 | 1000.6 |
| 20260504220720 | 23 | 226 | 19.3 | 29.0 | 0.00 | 0.00 | 0.00 | 43 | 1000.6 |
| 20260504220217 | 23 | 213 | 24.1 | 25.7 | 0.00 | 0.00 | 0.00 | 41 | 1000.6 |
| 20260504215714 | 23 | 211 | 20.9 | 37.0 | 0.00 | 0.00 | 0.00 | 44 | 1000.7 |
| 20260504215211 | 22 | 216 | 24.1 | 32.2 | 0.00 | 0.00 | 0.00 | 41 | 1000.8 |
| 20260504214706 | 22 | 234 | 29.0 | 33.8 | 0.00 | 0.00 | 0.00 | 43 | 1000.8 |
| 20260504214203 | 22 | 212 | 17.7 | 29.0 | 0.00 | 0.00 | 0.00 | 46 | 1000.9 |
| 20260504213700 | 22 | 201 | 24.1 | 37.0 | 0.00 | 0.00 | 0.00 | 45 | 1000.9 |
| 20260504213156 | 22 | 196 | 17.7 | 22.5 | 0.00 | 0.00 | 0.00 | 47 | 1001.0 |
| 20260504212653 | 22 | 228 | 25.7 | 33.8 | 0.00 | 0.00 | 0.00 | 46 | 1001.0 |
| 20260504212150 | 22 | 234 | 20.9 | 30.6 | 0.00 | 0.00 | 0.00 | 47 | 1001.2 |
| 20260504211647 | 22 | 233 | 19.3 | 33.8 | 0.00 | 0.00 | 0.00 | 48 | 1001.2 |
| 20260504211143 | 22 | 217 | 29.0 | 40.2 | 0.00 | 0.00 | 0.00 | 47 | 1000.9 |
| 20260504210641 | 22 | 229 | 29.0 | 33.8 | 0.00 | 0.00 | 0.00 | 47 | 1001.4 |
| 20260504210137 | 22 | 219 | 25.7 | 37.0 | 0.00 | 0.00 | 0.00 | 47 | 1001.3 |
| 20260504205635 | 22 | 234 | 29.0 | 32.2 | 0.00 | 0.00 | 0.00 | 47 | 1001.6 |
| 20260504205132 | 22 | 246 | 29.0 | 37.0 | 0.00 | 0.00 | 0.00 | 48 | 1001.6 |
| 20260504204631 | 22 | 221 | 27.4 | 38.6 | 0.00 | 0.00 | 0.00 | 48 | 1001.5 |
| 20260504204129 | 22 | 212 | 19.3 | 41.8 | 0.00 | 0.00 | 0.00 | 51 | 1001.7 |
| 20260504203628 | 22 | 225 | 29.0 | 37.0 | 0.00 | 0.00 | 0.00 | 52 | 1001.8 |
| 20260504203125 | 22 | 196 | 14.5 | 33.8 | 0.00 | 0.00 | 0.00 | 51 | 1001.7 |
| 20260504202625 | 22 | 236 | 24.1 | 33.8 | 0.00 | 0.00 | 0.00 | 52 | 1002.1 |
| 20260504202122 | 22 | 217 | 27.4 | 32.2 | 0.00 | 0.00 | 0.00 | 52 | 1001.8 |
| 20260504201619 | 22 | 212 | 43.5 | 48.3 | 0.00 | 0.00 | 0.00 | 50 | 1001.9 |
| 20260504201117 | 22 | 225 | 30.6 | 37.0 | 0.00 | 0.00 | 0.00 | 52 | 1002.1 |
| 20260504200614 | 22 | 214 | 29.0 | 33.8 | 0.00 | 0.00 | 0.00 | 51 | 1002.0 |
| 20260504200110 | 21 | 207 | 29.0 | 38.6 | 0.00 | 0.00 | 0.00 | 52 | 1002.3 |
| 20260504195606 | 21 | 223 | 38.6 | 41.8 | 0.00 | 0.00 | 0.00 | 52 | 1002.1 |
| 20260504195102 | 21 | 234 | 30.6 | 40.2 | 0.00 | 0.00 | 0.00 | 53 | 1002.3 |
| 20260504194600 | 21 | 222 | 24.1 | 37.0 | 0.00 | 0.00 | 0.00 | 52 | 1002.5 |
| 20260504194055 | 21 | 175 | 24.1 | 33.8 | 0.00 | 0.00 | 0.00 | 54 | 1002.4 |
| 20260504193552 | 21 | 217 | 32.2 | 33.8 | 0.00 | 0.00 | 0.00 | 53 | 1002.5 |
| 20260504193050 | 21 | 228 | 24.1 | 38.6 | 0.00 | 0.00 | 0.00 | 53 | 1002.6 |
| 20260504192548 | 21 | 219 | 38.6 | 40.2 | 0.00 | 0.00 | 0.00 | 51 | 1002.7 |
| 20260504192046 | 21 | 222 | 33.8 | 41.8 | 0.00 | 0.00 | 0.00 | 53 | 1002.6 |
| 20260504191544 | 21 | 226 | 32.2 | 45.1 | 0.00 | 0.00 | 0.00 | 51 | 1002.6 |
| 20260504191039 | 21 | 208 | 24.1 | 33.8 | 0.00 | 0.00 | 0.00 | 53 | 1002.5 |
| 20260504190536 | 21 | 232 | 32.2 | 41.8 | 0.00 | 0.00 | 0.00 | 52 | 1002.7 |
| 20260504190032 | 21 | 246 | 33.8 | 38.6 | 0.00 | 0.00 | 0.00 | 52 | 1002.8 |
| 20260504185530 | 21 | 199 | 29.0 | 40.2 | 0.00 | 0.00 | 0.00 | 52 | 1002.7 |
| 20260504185026 | 21 | 227 | 27.4 | 41.8 | 0.00 | 0.00 | 0.00 | 50 | 1002.8 |
| 20260504184521 | 21 | 234 | 27.4 | 38.6 | 0.00 | 0.00 | 0.00 | 51 | 1002.9 |
| 20260504184017 | 21 | 229 | 33.8 | 46.7 | 0.00 | 0.00 | 0.00 | 46 | 1002.9 |
| 20260504183514 | 21 | 208 | 25.7 | 30.6 | 0.00 | 0.00 | 0.00 | 47 | 1002.8 |
| 20260504183013 | 21 | 223 | 32.2 | 38.6 | 0.00 | 0.00 | 0.00 | 46 | 1002.8 |
| 20260504182509 | 21 | 251 | 29.0 | 32.2 | 0.00 | 0.00 | 0.00 | 48 | 1003.0 |
| 20260504182006 | 21 | 231 | 30.6 | 41.8 | 0.00 | 0.00 | 0.00 | 49 | 1002.9 |
| 20260504181503 | 20 | 244 | 29.0 | 32.2 | 0.00 | 0.00 | 0.00 | 50 | 1002.7 |
| 20260504181002 | 20 | 237 | 24.1 | 37.0 | 0.00 | 0.00 | 0.00 | 50 | 1002.8 |
| 20260504180500 | 20 | 240 | 24.1 | 38.6 | 0.00 | 0.00 | 0.00 | 47 | 1002.7 |
| 20260504175958 | 21 | 241 | 20.9 | 32.2 | 0.00 | 0.00 | 0.00 | 48 | 1003.0 |
| 20260504175455 | 21 | 223 | 25.7 | 30.6 | 0.00 | 0.00 | 0.00 | 49 | 1003.0 |
| 20260504174952 | 20 | 235 | 25.7 | 33.8 | 0.00 | 0.00 | 0.00 | 47 | 1002.7 |
| 20260504174450 | 21 | 238 | 33.8 | 38.6 | 0.00 | 0.00 | 0.00 | 43 | 1003.0 |
| 20260504173947 | 21 | 237 | 32.2 | 37.0 | 0.00 | 0.00 | 0.00 | 44 | 1003.4 |
| 20260504173443 | 20 | 243 | 33.8 | 33.8 | 0.00 | 0.00 | 0.00 | 45 | 1003.3 |
| 20260504172941 | 20 | 228 | 29.0 | 38.6 | 0.00 | 0.00 | 0.00 | 44 | 1003.5 |
| 20260504172437 | 20 | 233 | 30.6 | 37.0 | 0.00 | 0.00 | 0.00 | 44 | 1003.4 |
| 20260504171934 | 20 | 210 | 16.1 | 33.8 | 0.00 | 0.00 | 0.00 | 46 | 1003.5 |
| 20260504171431 | 20 | 233 | 24.1 | 30.6 | 0.00 | 0.00 | 0.00 | 46 | 1003.5 |
| 20260504170928 | 20 | 231 | 29.0 | 38.6 | 0.00 | 0.00 | 0.00 | 45 | 1003.6 |
| 20260504170424 | 20 | 232 | 32.2 | 37.0 | 0.00 | 0.00 | 0.00 | 44 | 1003.6 |
| 20260504160343 | 18 | 243 | 29.0 | 37.0 | 0.00 | 0.00 | 0.00 | 49 | 1004.2 |
| 20260504150808 | 16 | 213 | 22.5 | 29.0 | 0.00 | 0.00 | 0.00 | 58 | 1004.8 |
| 20260504150304 | 16 | 221 | 25.7 | 30.6 | 0.00 | 0.00 | 0.00 | 58 | 1004.8 |
| 20260504141234 | 15 | 213 | 17.7 | 24.1 | 0.00 | 0.00 | 0.00 | 67 | 1005.2 |
| 20260504140731 | 15 | 217 | 22.5 | 25.7 | 0.00 | 0.00 | 0.00 | 67 | 1005.3 |
| 20260504140226 | 15 | 212 | 16.1 | 22.5 | 0.00 | 0.00 | 0.00 | 68 | 1005.4 |
| 20260504130655 | 13 | 218 | 17.7 | 24.1 | 0.00 | 0.00 | 0.00 | 74 | 1005.9 |
| 20260504130151 | 13 | 217 | 17.7 | 20.9 | 0.00 | 0.00 | 0.00 | 75 | 1006.3 |
| 20260504120115 | 11 | 221 | 14.5 | 22.5 | 0.00 | 0.00 | 0.00 | 79 | 1006.1 |
| 20260504110543 | 10 | 232 | 11.3 | 12.9 | 0.00 | 0.00 | 0.00 | 83 | 1005.4 |
| 20260504100459 | 10 | 222 | 4.8 | 6.4 | 0.00 | 0.00 | 0.00 | 84 | 1005.5 |